DW8953 Weather Reports


time (UTC)temp
C
wind
direction
speed
KPH
gust
KPH
rain 1hr
cm
rain 24hr
cm
rain mn
cm
humidity
%
barometer
mb
20260503231552 20 0 0.0 0.0 0.00 0.00 0.00 41 1017.9
20260503230111 20 0 0.0 0.0 0.00 0.00 0.00 45 1017.9
20260503224553 20 0 0.0 0.0 0.00 0.00 0.00 42 1017.9
20260503223052 20 0 0.0 0.0 0.00 0.00 0.00 43 1018.0
20260503221554 20 0 0.0 0.0 0.00 0.00 0.00 41 1018.1
20260503220054 20 0 0.0 0.0 0.00 0.00 0.00 41 1018.4
20260503214557 20 0 0.0 0.0 0.00 0.00 0.00 44 1018.4
20260503213052 20 0 0.0 0.0 0.00 0.00 0.00 46 1018.4
20260503211551 20 0 0.0 0.0 0.00 0.00 0.00 42 1018.7
20260503210052 20 0 0.0 0.0 0.00 0.00 0.00 43 1019.0
20260503204551 20 0 0.0 0.0 0.00 0.00 0.00 42 1019.2
20260503203112 19 0 0.0 0.0 0.00 0.00 0.00 45 1019.3
20260503201554 19 0 0.0 0.0 0.00 0.00 0.00 47 1019.5
20260503200053 18 0 0.0 0.0 0.00 0.00 0.00 47 1020.0
20260503194557 18 0 0.0 0.0 0.00 0.00 0.00 51 1020.2
20260503193055 18 0 0.0 0.0 0.00 0.00 0.00 47 1020.5
20260503191557 18 0 0.0 0.0 0.00 0.00 0.00 56 1020.7
20260503190103 18 0 0.0 0.0 0.00 0.00 0.00 51 1020.8
20260503184552 18 0 0.0 0.0 0.00 0.00 0.00 54 1020.9
20260503183049 17 0 0.0 0.0 0.00 0.00 0.00 53 1021.0
20260503181558 17 0 0.0 0.0 0.00 0.00 0.00 55 1021.4
20260503180056 17 0 0.0 0.0 0.00 0.00 0.00 50 1021.2
20260503174548 17 0 0.0 0.0 0.00 0.00 0.00 53 1021.5
20260503173052 17 0 0.0 0.0 0.00 0.00 0.00 57 1021.8
20260503171549 16 0 0.0 0.0 0.00 0.00 0.00 53 1021.9
20260503100104 6 0 0.0 0.0 0.00 0.00 0.00 57 1021.0
20260503081557 6 0 0.0 0.0 0.00 0.00 0.00 65 1020.8
20260503071553 7 0 0.0 0.0 0.00 0.00 0.00 69 1020.1
20260503060116 8 0 0.0 0.0 0.00 0.00 0.00 72 1019.9
20260503054613 9 0 0.0 0.0 0.00 0.00 0.00 72 1019.9
20260503053049 9 0 0.0 0.0 0.00 0.00 0.00 73 1019.7
20260503051551 9 0 0.0 0.0 0.00 0.00 0.00 73 1019.7
20260503050048 10 0 0.0 0.0 0.00 0.00 0.00 74 1019.8
20260503044553 10 0 0.0 0.0 0.00 0.00 0.00 74 1019.6
20260503043050 10 0 0.0 0.0 0.00 0.00 0.00 74 1019.6
20260503041548 10 0 0.0 0.0 0.00 0.00 0.00 73 1019.6
20260503040050 11 0 0.0 0.0 0.00 0.00 0.00 72 1019.4
20260503034553 11 0 0.0 0.0 0.00 0.00 0.00 72 1019.4
20260503033051 11 0 0.0 0.0 0.00 0.00 0.00 71 1019.4
20260503031550 11 0 0.0 0.0 0.00 0.00 0.00 71 1019.3
20260503030055 12 0 0.0 0.0 0.00 0.00 0.00 69 1019.1
20260503024552 12 0 0.0 0.0 0.00 0.00 0.00 68 1018.8
20260503023053 12 0 0.0 0.0 0.00 0.00 0.00 67 1018.7
20260503021553 13 0 0.0 0.0 0.00 0.00 0.00 66 1018.5
20260503020053 13 0 0.0 0.0 0.00 0.00 0.00 65 1018.4
20260503014555 13 0 0.0 0.0 0.00 0.00 0.00 63 1018.0
20260503013047 14 0 0.0 0.0 0.00 0.00 0.00 58 1017.4
20260503011546 15 0 0.0 0.0 0.00 0.00 0.00 56 1017.1
20260503010048 15 0 0.0 0.0 0.00 0.00 0.00 52 1016.8
20260503004547 16 0 0.0 0.0 0.00 0.00 0.00 49 1016.7
20260503003051 16 0 0.0 0.0 0.00 0.00 0.00 45 1016.7
20260503001549 17 0 0.0 0.0 0.00 0.00 0.00 44 1016.3
20260503000047 17 0 0.0 0.0 0.00 0.00 0.00 42 1016.2
20260502234556 17 0 0.0 0.0 0.00 0.00 0.00 42 1016.1
20260502233049 17 0 0.0 0.0 0.00 0.00 0.00 41 1015.9